Welcome to Des Moines Iowa Weather. I am an independent private personal weather station on the Northwest Side of Des Moines, Iowa. Just East of Windsor Heights and just West of Glendale . This site is also mobile friendly.

There are no active watches, warnings or advisories


Visit our other weather sites:

Historical Data

Weather Station Setup



Weather Underground History page Text

Daily Summary for February 26, 2017 Units:  English    Metric   Both
« Previous Day
Next Day »
Daily Weekly Monthly Yearly Custom
  High: Low: Average:
Temperature: 46.4 °F 28.0 °F 35 °F
Dew Point: 30.0 °F 20.0 °F 23.6 °F
Humidity: 85 % 44 % 64 %
Wind Speed: 8.0 mph 0.0 mph 1.5 mph
Wind Gust: 17.0 mph - -
Wind:- - West
Pressure: 30.06 in 29.89 in -
Precipitation: 0.01 in    
Historical Graphs
 
 
Tabular Data for February 26, 2017
Time Temperature Dew Point Pressure Wind Wind Speed Wind Gust Humidity Rainfall Rate (Hourly)
00:12 29.2 °F 21.0 °F 29.97 in Calm   5.0 mph 71 % 0.00 in
00:27 29.0 °F 21.0 °F 29.96 in Calm   6.0 mph 72 % 0.00 in
00:42 28.8 °F 20.0 °F 29.95 in SSW 3.0 mph 4.0 mph 71 % 0.00 in
00:57 28.9 °F 21.0 °F 29.95 in SSW 1.0 mph 4.0 mph 71 % 0.00 in
01:12 29.1 °F 20.0 °F 29.95 in SSW 2.0 mph 4.0 mph 69 % 0.00 in
01:27 29.3 °F 20.0 °F 29.95 in Calm   5.0 mph 68 % 0.00 in
01:42 29.9 °F 20.0 °F 29.94 in South 1.0 mph 10.0 mph 67 % 0.00 in
01:57 30.2 °F 20.0 °F 29.94 in Calm   9.0 mph 66 % 0.00 in
02:12 30.4 °F 20.0 °F 29.93 in SSW 1.0 mph 9.0 mph 65 % 0.00 in
02:27 30.4 °F 20.0 °F 29.93 in SW 3.0 mph 10.0 mph 65 % 0.00 in
02:42 30.5 °F 20.0 °F 29.92 in South 2.0 mph 5.0 mph 65 % 0.00 in
02:57 30.4 °F 20.0 °F 29.91 in WSW 1.0 mph 9.0 mph 65 % 0.00 in
03:12 30.4 °F 20.0 °F 29.91 in Calm   4.0 mph 65 % 0.00 in
03:27 30.4 °F 20.0 °F 29.90 in Calm   6.0 mph 65 % 0.00 in
03:42 30.1 °F 20.0 °F 29.89 in SSW 2.0 mph 5.0 mph 66 % 0.00 in
03:57 30.0 °F 20.0 °F 29.89 in Calm   4.0 mph 67 % 0.00 in
04:12 29.9 °F 20.0 °F 29.89 in South 1.0 mph 3.0 mph 68 % 0.00 in
04:27 30.1 °F 21.0 °F 29.91 in Calm   5.0 mph 70 % 0.00 in
04:42 30.3 °F 22.0 °F 29.92 in West 1.0 mph 4.0 mph 70 % 0.00 in
04:57 30.4 °F 22.0 °F 29.92 in West 2.0 mph 3.0 mph 71 % 0.00 in
05:12 30.2 °F 22.0 °F 29.92 in Calm   2.0 mph 71 % 0.00 in
05:27 29.9 °F 22.0 °F 29.91 in Calm   5.0 mph 72 % 0.00 in
05:42 29.7 °F 22.0 °F 29.92 in Calm   3.0 mph 73 % 0.00 in
05:57 29.5 °F 22.0 °F 29.92 in Calm   4.0 mph 74 % 0.00 in
06:12 29.3 °F 22.0 °F 29.92 in Calm   3.0 mph 75 % 0.00 in
06:27 29.0 °F 22.0 °F 29.92 in Calm     75 % 0.00 in
06:42 28.6 °F 22.0 °F 29.93 in Calm     76 % 0.00 in
06:57 28.2 °F 22.0 °F 29.93 in Calm   3.0 mph 77 % 0.00 in
07:12 28.0 °F 22.0 °F 29.93 in Calm   2.0 mph 78 % 0.00 in
07:27 28.0 °F 22.0 °F 29.93 in Calm   3.0 mph 79 % 0.00 in
07:42 28.3 °F 23.0 °F 29.94 in Calm   2.0 mph 80 % 0.00 in
07:57 28.9 °F 23.0 °F 29.94 in Calm   2.0 mph 80 % 0.00 in
08:13 29.8 °F 24.0 °F 29.95 in Calm   4.0 mph 80 % 0.00 in
08:28 31.9 °F 25.0 °F 29.95 in SSW 2.0 mph 4.0 mph 77 % 0.00 in
08:43 33.4 °F 25.0 °F 29.95 in SW 2.0 mph 4.0 mph 72 % 0.00 in
08:58 34.7 °F 25.0 °F 29.96 in Calm   4.0 mph 69 % 0.00 in
09:13 35.5 °F 25.0 °F 29.96 in WSW 2.0 mph 4.0 mph 67 % 0.00 in
09:28 36.8 °F 26.0 °F 29.96 in Calm   7.0 mph 66 % 0.00 in
09:43 38.1 °F 27.0 °F 29.96 in WSW 3.0 mph 6.0 mph 64 % 0.00 in
09:58 39.1 °F 27.0 °F 29.96 in West 4.0 mph 8.0 mph 62 % 0.00 in
10:13 40.0 °F 27.0 °F 29.96 in SW 2.0 mph 11.0 mph 59 % 0.00 in
10:28 40.6 °F 27.0 °F 29.96 in NW 2.0 mph 12.0 mph 58 % 0.01 in
10:43 41.8 °F 27.0 °F 29.96 in West 1.0 mph 9.0 mph 55 % 0.01 in
10:58 42.1 °F 27.0 °F 29.96 in West 2.0 mph 7.0 mph 55 % 0.01 in
11:13 42.3 °F 27.0 °F 29.96 in NW 4.0 mph 9.0 mph 56 % 0.01 in
11:28 42.7 °F 28.0 °F 29.96 in West 2.0 mph 12.0 mph 56 % 0.00 in
11:43 43.8 °F 28.0 °F 29.96 in WSW 1.0 mph 10.0 mph 54 % 0.00 in
11:58 45.1 °F 29.0 °F 29.96 in SW 1.0 mph 10.0 mph 53 % 0.00 in
12:14 45.1 °F 29.0 °F 29.96 in NW 3.0 mph 12.0 mph 54 % 0.00 in
12:29 45.8 °F 29.0 °F 29.96 in NW 6.0 mph 11.0 mph 52 % 0.00 in
12:44 45.6 °F 30.0 °F 29.96 in WNW 2.0 mph 12.0 mph 55 % 0.00 in
12:59 45.0 °F 28.0 °F 29.96 in NW 6.0 mph 14.0 mph 51 % 0.00 in
13:14 45.7 °F 28.0 °F 29.95 in WNW 3.0 mph 12.0 mph 50 % 0.00 in
13:29 45.9 °F 28.0 °F 29.95 in NW 8.0 mph 12.0 mph 49 % 0.00 in
13:44 45.1 °F 26.0 °F 29.95 in NW 2.0 mph 13.0 mph 47 % 0.00 in
13:59 45.8 °F 26.0 °F 29.95 in West 3.0 mph 12.0 mph 47 % 0.00 in
14:14 46.4 °F 26.0 °F 29.95 in WNW 3.0 mph 16.0 mph 46 % 0.00 in
14:29 45.3 °F 25.0 °F 29.95 in WNW 7.0 mph 17.0 mph 46 % 0.00 in
14:44 44.8 °F 24.0 °F 29.95 in West 2.0 mph 11.0 mph 45 % 0.00 in
14:59 44.5 °F 24.0 °F 29.95 in NNW 4.0 mph 11.0 mph 45 % 0.00 in
15:14 44.1 °F 23.0 °F 29.96 in NW 5.0 mph 14.0 mph 44 % 0.00 in
15:29 43.9 °F 24.0 °F 29.96 in WNW 6.0 mph 10.0 mph 45 % 0.00 in
15:44 43.5 °F 23.0 °F 29.97 in NNW 6.0 mph 11.0 mph 45 % 0.00 in
15:59 42.9 °F 24.0 °F 29.97 in WNW 3.0 mph 10.0 mph 48 % 0.00 in
16:14 42.5 °F 23.0 °F 29.98 in NW 2.0 mph 9.0 mph 47 % 0.00 in
16:29 42.0 °F 23.0 °F 29.98 in NNW 8.0 mph 11.0 mph 48 % 0.00 in
16:44 41.5 °F 23.0 °F 29.98 in West 4.0 mph 8.0 mph 48 % 0.00 in
16:59 41.0 °F 23.0 °F 29.98 in NW 2.0 mph 5.0 mph 50 % 0.00 in
17:14 40.5 °F 24.0 °F 29.99 in North 4.0 mph 11.0 mph 52 % 0.00 in
17:29 39.9 °F 25.0 °F 29.99 in Calm   6.0 mph 55 % 0.00 in
17:44 39.1 °F 24.0 °F 30.00 in Calm   4.0 mph 56 % 0.00 in
17:59 38.4 °F 24.0 °F 30.00 in NNW 2.0 mph 6.0 mph 56 % 0.00 in
18:14 37.4 °F 22.0 °F 30.00 in Calm   3.0 mph 55 % 0.00 in
18:29 35.9 °F 22.0 °F 30.01 in Calm     58 % 0.00 in
18:44 34.7 °F 23.0 °F 30.01 in Calm     62 % 0.00 in
18:59 34.6 °F 23.0 °F 30.01 in Calm   2.0 mph 63 % 0.00 in
19:14 34.2 °F 23.0 °F 30.02 in Calm     65 % 0.00 in
19:29 34.0 °F 24.0 °F 30.02 in Calm     66 % 0.00 in
19:44 33.5 °F 23.0 °F 30.02 in Calm     66 % 0.00 in
19:59 32.8 °F 23.0 °F 30.03 in Calm     67 % 0.00 in
20:14 32.0 °F 23.0 °F 30.03 in Calm     69 % 0.00 in
20:29 31.4 °F 23.0 °F 30.03 in Calm     70 % 0.00 in
20:44 30.8 °F 22.0 °F 30.04 in Calm     71 % 0.00 in
20:59 30.4 °F 22.0 °F 30.05 in Calm     72 % 0.00 in
21:14 29.9 °F 23.0 °F 30.05 in Calm     75 % 0.00 in
21:29 29.6 °F 23.0 °F 30.05 in Calm     77 % 0.00 in
21:45 29.3 °F 23.0 °F 30.05 in Calm     77 % 0.00 in
21:59 29.0 °F 23.0 °F 30.05 in Calm     78 % 0.00 in
22:15 28.6 °F 23.0 °F 30.06 in Calm     78 % 0.00 in
22:30 28.2 °F 23.0 °F 30.05 in Calm     81 % 0.00 in
22:45 28.4 °F 24.0 °F 30.05 in Calm     83 % 0.00 in
23:00 28.5 °F 24.0 °F 30.06 in Calm     83 % 0.00 in
23:15 29.0 °F 25.0 °F 30.06 in Calm     85 % 0.00 in
23:30 29.3 °F 25.0 °F 30.06 in Calm     84 % 0.00 in
23:45 29.4 °F 25.0 °F 30.05 in Calm     84 % 0.00 in
Des Moines Weather and Climate
Compliments of Weather Underground - 3 mb

Script developed by  Jim McMurry - jmcmurry@mwt.net Adapted for the template by  Wim van der Kuil - Leuven-Template.eu

You find our weather info also at:

Weather Underground

Equipment we use:

Weather-station
Davis VP2 Plus

Weather-program
Davis Weatherlink.Com

Weather-server
iMac (Retina 4K, 21.5-inch, Late 2015)

Provider
Hostmonster.com

Davis VP2 Plus

Davis Weatherlink.Com

iMac (Retina 4K, 21.5-inch, Late 2015)

Hostmonster.com